| time (UTC) | temp F | wind direction | speed MPH | gust MPH | rain 1hr in | rain 24hr in | rain mn in | humidity % | barometer mb |
| 20260903162504 | 81 | 262 | 3.0 | 6.0 | 0.62 | 0.85 | 0.62 | 81 | 1013.4 |
| 20260903162004 | 82 | 213 | 3.0 | 13.0 | 0.58 | 0.81 | 0.59 | 79 | 1013.6 |
| 20260903161504 | 85 | 188 | 3.0 | 13.0 | 0.34 | 0.57 | 0.34 | 77 | 1013.6 |
| 20260903161003 | 87 | 194 | 2.0 | 9.0 | 0.08 | 0.31 | 0.08 | 74 | 1013.5 |
| 20260903160504 | 89 | 267 | 1.0 | 4.0 | 0.00 | 0.23 | 0.00 | 71 | 1013.2 |
| 20260903160024 | 90 | 245 | 1.0 | 5.0 | 0.00 | 0.23 | 0.00 | 69 | 1013.2 |
| 20260903155504 | 91 | 138 | 1.0 | 5.0 | 0.00 | 0.23 | 0.00 | 67 | 1013.2 |
| 20260903155025 | 91 | 103 | 1.0 | 4.0 | 0.00 | 0.23 | 0.00 | 67 | 1013.4 |
| 20260903154503 | 92 | 95 | 2.0 | 6.0 | 0.00 | 0.23 | 0.00 | 65 | 1013.3 |
| 20260903154003 | 91 | 94 | 2.0 | 6.0 | 0.00 | 0.23 | 0.00 | 68 | 1013.3 |
| 20260903153503 | 91 | 87 | 1.0 | 5.0 | 0.00 | 0.23 | 0.00 | 67 | 1013.2 |
| 20260903153004 | 92 | 103 | 2.0 | 6.0 | 0.00 | 0.23 | 0.00 | 65 | 1013.3 |
| 20260903152524 | 92 | 107 | 2.0 | 6.0 | 0.00 | 0.23 | 0.00 | 67 | 1013.3 |
| 20260903152004 | 91 | 107 | 2.0 | 6.0 | 0.00 | 0.23 | 0.00 | 68 | 1013.4 |
| 20260903151504 | 92 | 110 | 2.0 | 5.0 | 0.00 | 0.23 | 0.00 | 69 | 1013.3 |
| 20260903151004 | 90 | 115 | 2.0 | 5.0 | 0.00 | 0.23 | 0.00 | 70 | 1013.3 |
| 20260903150503 | 88 | 162 | 2.0 | 7.0 | 0.00 | 0.23 | 0.00 | 72 | 1013.3 |
| 20260903150004 | 89 | 160 | 2.0 | 7.0 | 0.00 | 0.23 | 0.00 | 70 | 1013.2 |
| 20260903145503 | 89 | 123 | 2.0 | 6.0 | 0.00 | 0.23 | 0.00 | 72 | 1013.2 |
| 20260903145003 | 89 | 121 | 3.0 | 6.0 | 0.00 | 0.23 | 0.00 | 72 | 1013.2 |
| 20260903144503 | 88 | 124 | 2.0 | 6.0 | 0.00 | 0.23 | 0.00 | 72 | 1013.2 |
| 20260903144003 | 89 | 138 | 2.0 | 7.0 | 0.00 | 0.23 | 0.00 | 73 | 1013.1 |
| 20260903143504 | 88 | 132 | 3.0 | 7.0 | 0.00 | 0.23 | 0.00 | 73 | 1013.1 |
| 20260903143004 | 88 | 127 | 2.0 | 6.0 | 0.00 | 0.23 | 0.00 | 74 | 1012.9 |
| 20260903142525 | 87 | 131 | 3.0 | 8.0 | 0.00 | 0.23 | 0.00 | 74 | 1012.9 |
| 20260903142005 | 87 | 120 | 3.0 | 8.0 | 0.00 | 0.23 | 0.00 | 77 | 1013.0 |
| 20260903141504 | 87 | 126 | 3.0 | 6.0 | 0.00 | 0.23 | 0.00 | 76 | 1013.0 |
| 20260903141003 | 86 | 126 | 2.0 | 6.0 | 0.00 | 0.23 | 0.00 | 75 | 1013.0 |
| 20260903140504 | 87 | 108 | 2.0 | 6.0 | 0.00 | 0.23 | 0.00 | 76 | 1012.9 |
| 20260903140004 | 86 | 105 | 2.0 | 6.0 | 0.00 | 0.23 | 0.00 | 76 | 1013.0 |
| 20260903135525 | 86 | 118 | 2.0 | 6.0 | 0.00 | 0.23 | 0.00 | 79 | 1013.2 |
| 20260903135004 | 85 | 134 | 2.0 | 4.0 | 0.00 | 0.23 | 0.00 | 80 | 1013.2 |
| 20260903134504 | 85 | 145 | 3.0 | 5.0 | 0.00 | 0.23 | 0.00 | 79 | 1013.3 |
| 20260903134004 | 84 | 146 | 3.0 | 6.0 | 0.00 | 0.23 | 0.00 | 80 | 1013.4 |
| 20260903133503 | 84 | 135 | 3.0 | 7.0 | 0.00 | 0.23 | 0.00 | 80 | 1013.3 |
| 20260903133004 | 84 | 124 | 3.0 | 7.0 | 0.00 | 0.23 | 0.00 | 80 | 1013.2 |
| 20260903132525 | 83 | 124 | 3.0 | 5.0 | 0.00 | 0.23 | 0.00 | 81 | 1013.2 |
| 20260903132004 | 83 | 117 | 2.0 | 5.0 | 0.00 | 0.23 | 0.00 | 81 | 1013.2 |
| 20260903131504 | 83 | 115 | 2.0 | 5.0 | 0.00 | 0.23 | 0.00 | 83 | 1013.2 |
| 20260903131004 | 82 | 110 | 2.0 | 4.0 | 0.00 | 0.23 | 0.00 | 83 | 1013.2 |
| 20260903130505 | 82 | 123 | 2.0 | 5.0 | 0.00 | 0.23 | 0.00 | 85 | 1013.1 |
| 20260903130025 | 81 | 129 | 2.0 | 5.0 | 0.00 | 0.23 | 0.00 | 86 | 1013.2 |
| 20260903125505 | 81 | 122 | 2.0 | 5.0 | 0.00 | 0.23 | 0.00 | 87 | 1013.2 |
| 20260903125004 | 81 | 121 | 2.0 | 5.0 | 0.00 | 0.23 | 0.00 | 87 | 1013.2 |
| 20260903124504 | 81 | 122 | 2.0 | 5.0 | 0.00 | 0.23 | 0.00 | 88 | 1013.2 |
| 20260903124004 | 80 | 125 | 2.0 | 4.0 | 0.00 | 0.23 | 0.00 | 89 | 1013.2 |
| 20260903123504 | 79 | 120 | 1.0 | 4.0 | 0.00 | 0.23 | 0.00 | 89 | 1013.1 |
| 20260903123004 | 79 | 106 | 1.0 | 4.0 | 0.00 | 0.23 | 0.00 | 89 | 1012.9 |
| 20260903122503 | 79 | 98 | 1.0 | 4.0 | 0.00 | 0.23 | 0.00 | 90 | 1013.0 |
| 20260903122024 | 78 | 97 | 1.0 | 3.0 | 0.00 | 0.23 | 0.00 | 90 | 1013.0 |
| 20260903121503 | 78 | 97 | 0.0 | 2.0 | 0.00 | 0.23 | 0.00 | 90 | 1012.9 |
| 20260903121004 | 78 | 95 | 1.0 | 3.0 | 0.00 | 0.23 | 0.00 | 90 | 1012.8 |
| 20260903120503 | 78 | 88 | 1.0 | 3.0 | 0.00 | 0.23 | 0.00 | 90 | 1012.7 |
| 20260903120005 | 77 | 86 | 1.0 | 3.0 | 0.00 | 0.23 | 0.00 | 90 | 1012.7 |
| 20260903115504 | 77 | 88 | 0.0 | 3.0 | 0.00 | 0.23 | 0.00 | 90 | 1012.7 |
| 20260903115003 | 77 | 0 | 0.0 | 0.0 | 0.00 | 0.23 | 0.00 | 90 | 1012.6 |
| 20260903114504 | 77 | 0 | 0.0 | 0.0 | 0.00 | 0.23 | 0.00 | 90 | 1012.4 |
| 20260903114004 | 77 | 0 | 0.0 | 0.0 | 0.00 | 0.23 | 0.00 | 90 | 1012.3 |
| 20260903113503 | 77 | 0 | 0.0 | 0.0 | 0.00 | 0.23 | 0.00 | 90 | 1012.2 |
| 20260903113004 | 77 | 0 | 0.0 | 0.0 | 0.00 | 0.23 | 0.00 | 90 | 1012.2 |
| 20260903112503 | 77 | 0 | 0.0 | 0.0 | 0.00 | 0.23 | 0.00 | 90 | 1012.2 |
| 20260903112004 | 77 | 0 | 0.0 | 0.0 | 0.00 | 0.24 | 0.00 | 90 | 1012.1 |
| 20260903111503 | 76 | 0 | 0.0 | 0.0 | 0.00 | 0.24 | 0.00 | 90 | 1012.0 |
| 20260903111003 | 76 | 0 | 0.0 | 0.0 | 0.00 | 0.24 | 0.00 | 90 | 1011.9 |
| 20260903110525 | 76 | 0 | 0.0 | 0.0 | 0.00 | 0.24 | 0.00 | 90 | 1011.9 |
| 20260903110025 | 76 | 0 | 0.0 | 0.0 | 0.00 | 0.24 | 0.00 | 90 | 1012.1 |
| 20260903105503 | 76 | 0 | 0.0 | 0.0 | 0.00 | 0.24 | 0.00 | 90 | 1012.0 |
| 20260903105003 | 76 | 0 | 0.0 | 0.0 | 0.00 | 0.24 | 0.00 | 90 | 1012.1 |
| 20260903104525 | 76 | 0 | 0.0 | 0.0 | 0.00 | 0.24 | 0.00 | 90 | 1012.1 |
| 20260903104004 | 76 | 0 | 0.0 | 0.0 | 0.00 | 0.24 | 0.00 | 90 | 1012.1 |
| 20260903103504 | 77 | 108 | 0.0 | 1.0 | 0.00 | 0.24 | 0.00 | 90 | 1012.1 |
| 20260903103003 | 77 | 110 | 0.0 | 3.0 | 0.00 | 0.24 | 0.00 | 90 | 1012.1 |
| 20260903102525 | 77 | 90 | 0.0 | 3.0 | 0.00 | 0.24 | 0.00 | 90 | 1012.0 |
| 20260903102004 | 77 | 58 | 0.0 | 2.0 | 0.00 | 0.24 | 0.00 | 90 | 1012.1 |
| 20260903101504 | 77 | 58 | 0.0 | 3.0 | 0.00 | 0.24 | 0.00 | 90 | 1012.0 |
| 20260903101003 | 77 | 58 | 0.0 | 3.0 | 0.00 | 0.24 | 0.00 | 90 | 1011.8 |
| 20260903100504 | 77 | 0 | 0.0 | 0.0 | 0.00 | 0.24 | 0.00 | 90 | 1011.8 |
| 20260903100004 | 77 | 0 | 0.0 | 0.0 | 0.00 | 0.24 | 0.00 | 89 | 1011.7 |
| 20260903095504 | 77 | 58 | 0.0 | 1.0 | 0.00 | 0.24 | 0.00 | 89 | 1011.6 |
| 20260903095004 | 77 | 58 | 0.0 | 2.0 | 0.00 | 0.24 | 0.00 | 89 | 1011.6 |
| 20260903094503 | 77 | 58 | 0.0 | 2.0 | 0.00 | 0.24 | 0.00 | 89 | 1011.6 |
| 20260903094004 | 77 | 58 | 1.0 | 3.0 | 0.00 | 0.24 | 0.00 | 89 | 1011.4 |
| 20260903093503 | 77 | 58 | 1.0 | 3.0 | 0.00 | 0.24 | 0.00 | 89 | 1011.3 |
| 20260903093004 | 77 | 58 | 0.0 | 2.0 | 0.00 | 0.24 | 0.00 | 89 | 1011.2 |
| 20260903092503 | 77 | 0 | 0.0 | 0.0 | 0.00 | 0.24 | 0.00 | 89 | 1011.2 |
| 20260903092003 | 77 | 0 | 0.0 | 0.0 | 0.00 | 0.24 | 0.00 | 89 | 1011.2 |
| 20260903091503 | 77 | 0 | 0.0 | 0.0 | 0.00 | 0.24 | 0.00 | 89 | 1011.1 |
| 20260903091004 | 77 | 0 | 0.0 | 0.0 | 0.00 | 0.24 | 0.00 | 89 | 1011.1 |
| 20260903090503 | 77 | 0 | 0.0 | 0.0 | 0.00 | 0.24 | 0.00 | 89 | 1011.1 |
| 20260903090024 | 77 | 0 | 0.0 | 0.0 | 0.00 | 0.24 | 0.00 | 89 | 1011.1 |
| 20260903085504 | 77 | 0 | 0.0 | 0.0 | 0.00 | 0.24 | 0.00 | 89 | 1011.1 |
| 20260903085004 | 77 | 0 | 0.0 | 0.0 | 0.00 | 0.24 | 0.00 | 89 | 1011.1 |
| 20260903084503 | 77 | 0 | 0.0 | 0.0 | 0.00 | 0.24 | 0.00 | 89 | 1011.0 |
| 20260903084004 | 77 | 0 | 0.0 | 0.0 | 0.00 | 0.24 | 0.00 | 89 | 1011.1 |
| 20260903083526 | 77 | 0 | 0.0 | 0.0 | 0.00 | 0.24 | 0.00 | 89 | 1011.0 |
| 20260903083004 | 77 | 0 | 0.0 | 0.0 | 0.00 | 0.24 | 0.00 | 89 | 1011.1 |
| 20260903082525 | 77 | 0 | 0.0 | 0.0 | 0.00 | 0.24 | 0.00 | 89 | 1011.1 |
| 20260903082004 | 77 | 0 | 0.0 | 0.0 | 0.00 | 0.24 | 0.00 | 89 | 1011.1 |
| 20260903081504 | 77 | 0 | 0.0 | 0.0 | 0.00 | 0.24 | 0.00 | 89 | 1011.2 |
| 20260903081003 | 77 | 0 | 0.0 | 0.0 | 0.00 | 0.24 | 0.00 | 89 | 1011.2 |
| 20260903080525 | 77 | 0 | 0.0 | 0.0 | 0.00 | 0.24 | 0.00 | 89 | 1011.2 |
| 20260903080004 | 77 | 57 | 1.0 | 3.0 | 0.00 | 0.24 | 0.00 | 89 | 1011.2 |
| 20260903075524 | 77 | 55 | 1.0 | 3.0 | 0.00 | 0.24 | 0.00 | 89 | 1011.2 |
| 20260903075005 | 77 | 53 | 0.0 | 2.0 | 0.00 | 0.24 | 0.00 | 89 | 1011.4 |
| 20260903074504 | 77 | 0 | 0.0 | 0.0 | 0.00 | 0.24 | 0.00 | 89 | 1011.4 |
| 20260903074004 | 77 | 0 | 0.0 | 0.0 | 0.00 | 0.24 | 0.00 | 89 | 1011.4 |
| 20260903073503 | 78 | 0 | 0.0 | 0.0 | 0.00 | 0.24 | 0.00 | 89 | 1011.3 |
| 20260903073004 | 78 | 0 | 0.0 | 0.0 | 0.00 | 0.24 | 0.00 | 89 | 1011.3 |
| 20260903072525 | 78 | 0 | 0.0 | 0.0 | 0.00 | 0.24 | 0.00 | 89 | 1011.2 |
| 20260903072004 | 78 | 81 | 0.0 | 3.0 | 0.00 | 0.24 | 0.00 | 89 | 1011.2 |
| 20260903071504 | 78 | 81 | 0.0 | 3.0 | 0.00 | 0.24 | 0.00 | 89 | 1011.2 |
| 20260903071005 | 78 | 81 | 0.0 | 2.0 | 0.00 | 0.24 | 0.00 | 89 | 1011.2 |
| 20260903070504 | 78 | 0 | 0.0 | 0.0 | 0.00 | 0.24 | 0.00 | 89 | 1011.2 |
| 20260903070024 | 78 | 0 | 0.0 | 0.0 | 0.00 | 0.24 | 0.00 | 89 | 1011.2 |
| 20260903065525 | 78 | 0 | 0.0 | 0.0 | 0.00 | 0.24 | 0.00 | 89 | 1011.2 |
| 20260903065004 | 78 | 124 | 0.0 | 1.0 | 0.00 | 0.24 | 0.00 | 89 | 1011.2 |
| 20260903064524 | 78 | 124 | 0.0 | 1.0 | 0.00 | 0.24 | 0.00 | 89 | 1011.3 |
| 20260903064004 | 78 | 124 | 0.0 | 1.0 | 0.00 | 0.24 | 0.00 | 89 | 1011.4 |
| 20260903063504 | 78 | 0 | 0.0 | 0.0 | 0.00 | 0.24 | 0.00 | 89 | 1011.5 |
| 20260903063025 | 78 | 0 | 0.0 | 0.0 | 0.00 | 0.24 | 0.00 | 89 | 1011.6 |
| 20260903062504 | 78 | 0 | 0.0 | 0.0 | 0.00 | 0.24 | 0.00 | 89 | 1011.6 |
| 20260903062004 | 78 | 0 | 0.0 | 0.0 | 0.00 | 0.24 | 0.00 | 88 | 1011.7 |
| 20260903061504 | 78 | 0 | 0.0 | 0.0 | 0.00 | 0.24 | 0.00 | 89 | 1011.8 |
| 20260903061004 | 78 | 0 | 0.0 | 0.0 | 0.00 | 0.24 | 0.00 | 88 | 1012.0 |
| 20260903060504 | 78 | 0 | 0.0 | 0.0 | 0.00 | 0.24 | 0.00 | 88 | 1012.0 |
| 20260903060003 | 78 | 0 | 0.0 | 0.0 | 0.00 | 0.24 | 0.00 | 88 | 1012.1 |
| 20260903055503 | 77 | 0 | 0.0 | 0.0 | 0.00 | 0.24 | 0.00 | 88 | 1012.2 |
| 20260903055004 | 77 | 0 | 0.0 | 0.0 | 0.00 | 0.24 | 0.00 | 88 | 1012.3 |
| 20260903054525 | 77 | 0 | 0.0 | 0.0 | 0.00 | 0.24 | 0.00 | 88 | 1012.3 |
| 20260903054026 | 77 | 0 | 0.0 | 0.0 | 0.00 | 0.24 | 0.00 | 88 | 1012.3 |
| 20260903053503 | 77 | 0 | 0.0 | 0.0 | 0.00 | 0.24 | 0.00 | 88 | 1012.5 |
| 20260903053004 | 77 | 0 | 0.0 | 0.0 | 0.00 | 0.24 | 0.00 | 88 | 1012.4 |
| 20260903052503 | 77 | 0 | 0.0 | 0.0 | 0.00 | 0.24 | 0.00 | 88 | 1012.5 |
| 20260903052025 | 77 | 64 | 0.0 | 3.0 | 0.00 | 0.24 | 0.00 | 88 | 1012.4 |
| 20260903051504 | 77 | 64 | 0.0 | 3.0 | 0.00 | 0.24 | 0.00 | 88 | 1012.4 |
| 20260903051004 | 78 | 0 | 0.0 | 0.0 | 0.00 | 0.24 | 0.00 | 88 | 1012.4 |
| 20260903050503 | 77 | 0 | 0.0 | 0.0 | 0.00 | 0.24 | 0.00 | 88 | 1012.6 |
| 20260903050004 | 78 | 0 | 0.0 | 0.0 | 0.00 | 0.24 | 0.00 | 88 | 1012.6 |
| 20260903045504 | 78 | 105 | 1.0 | 3.0 | 0.00 | 0.24 | 0.00 | 88 | 1012.7 |
| 20260903045004 | 78 | 102 | 1.0 | 3.0 | 0.00 | 0.24 | 0.00 | 88 | 1012.7 |
| 20260903044503 | 78 | 99 | 1.0 | 3.0 | 0.00 | 0.24 | 0.00 | 88 | 1012.7 |
| 20260903044004 | 78 | 91 | 1.0 | 3.0 | 0.00 | 0.24 | 0.00 | 88 | 1012.7 |
| 20260903043503 | 78 | 89 | 1.0 | 3.0 | 0.00 | 0.24 | 0.00 | 88 | 1012.7 |
| 20260903043004 | 78 | 89 | 1.0 | 3.0 | 0.00 | 0.24 | 0.00 | 88 | 1012.7 |
| 20260903042503 | 78 | 92 | 1.0 | 3.0 | 0.00 | 0.24 | 0.00 | 88 | 1012.7 |
| 20260903042004 | 78 | 81 | 1.0 | 3.0 | 0.00 | 0.24 | 0.00 | 88 | 1012.8 |
| 20260903041503 | 78 | 80 | 1.0 | 4.0 | 0.00 | 0.24 | 0.00 | 88 | 1012.9 |
| 20260903041003 | 78 | 92 | 1.0 | 4.0 | 0.00 | 0.24 | 0.00 | 88 | 1012.8 |
| 20260903040503 | 78 | 80 | 1.0 | 4.0 | 0.00 | 0.24 | 0.00 | 88 | 1012.9 |
| 20260903040004 | 78 | 71 | 2.0 | 5.0 | 0.00 | 0.24 | 0.00 | 88 | 1013.0 |
| 20260903035504 | 78 | 65 | 2.0 | 5.0 | 0.00 | 0.24 | 0.24 | 87 | 1013.0 |
| 20260903035003 | 78 | 60 | 3.0 | 5.0 | 0.00 | 0.24 | 0.24 | 87 | 1013.1 |
| 20260903034525 | 78 | 56 | 3.0 | 5.0 | 0.00 | 0.24 | 0.24 | 87 | 1013.2 |
| 20260903034003 | 78 | 57 | 2.0 | 5.0 | 0.00 | 0.24 | 0.24 | 87 | 1013.2 |
| 20260903033505 | 78 | 53 | 2.0 | 4.0 | 0.00 | 0.24 | 0.24 | 87 | 1013.2 |
| 20260903033004 | 78 | 49 | 1.0 | 4.0 | 0.00 | 0.24 | 0.24 | 87 | 1013.2 |
| 20260903032504 | 78 | 49 | 1.0 | 4.0 | 0.00 | 0.24 | 0.24 | 87 | 1013.3 |
| 20260903032025 | 78 | 48 | 1.0 | 4.0 | 0.00 | 0.24 | 0.24 | 87 | 1013.3 |
| 20260903031504 | 78 | 48 | 1.0 | 6.0 | 0.00 | 0.24 | 0.24 | 87 | 1013.2 |
| 20260903031004 | 78 | 50 | 1.0 | 6.0 | 0.00 | 0.24 | 0.24 | 87 | 1013.2 |
| 20260903030503 | 78 | 51 | 1.0 | 3.0 | 0.00 | 0.24 | 0.24 | 87 | 1013.2 |
| 20260903030025 | 78 | 54 | 1.0 | 4.0 | 0.00 | 0.24 | 0.24 | 87 | 1013.2 |
| 20260903025504 | 78 | 57 | 1.0 | 4.0 | 0.00 | 0.24 | 0.24 | 87 | 1013.2 |
| 20260903025003 | 78 | 60 | 0.0 | 3.0 | 0.00 | 0.24 | 0.24 | 87 | 1013.3 |
| 20260903024504 | 77 | 60 | 0.0 | 2.0 | 0.00 | 0.24 | 0.24 | 87 | 1013.4 |
| 20260903024025 | 77 | 60 | 0.0 | 2.0 | 0.00 | 0.24 | 0.24 | 87 | 1013.4 |
| 20260903023525 | 77 | 60 | 0.0 | 2.0 | 0.00 | 0.24 | 0.24 | 87 | 1013.3 |
| 20260903023004 | 77 | 60 | 0.0 | 2.0 | 0.00 | 0.24 | 0.24 | 86 | 1013.2 |
| 20260903022504 | 77 | 60 | 0.0 | 2.0 | 0.00 | 0.24 | 0.24 | 86 | 1013.2 |
| 20260903022003 | 77 | 60 | 0.0 | 2.0 | 0.00 | 0.24 | 0.24 | 86 | 1013.2 |
| 20260903021504 | 77 | 60 | 0.0 | 3.0 | 0.00 | 0.24 | 0.24 | 86 | 1013.2 |
| 20260903021003 | 77 | 60 | 0.0 | 3.0 | 0.00 | 0.24 | 0.24 | 86 | 1013.2 |
| 20260903020504 | 77 | 60 | 0.0 | 1.0 | 0.00 | 0.24 | 0.24 | 86 | 1013.4 |
| 20260903020004 | 77 | 0 | 0.0 | 0.0 | 0.00 | 0.24 | 0.24 | 86 | 1013.4 |
| 20260903015504 | 77 | 0 | 0.0 | 0.0 | 0.00 | 0.24 | 0.24 | 86 | 1013.3 |
| 20260903015003 | 77 | 0 | 0.0 | 0.0 | 0.00 | 0.24 | 0.24 | 86 | 1013.2 |
| 20260903014503 | 77 | 0 | 0.0 | 0.0 | 0.00 | 0.24 | 0.24 | 86 | 1013.2 |
| 20260903014003 | 77 | 0 | 0.0 | 0.0 | 0.00 | 0.24 | 0.24 | 86 | 1012.8 |
| 20260903013525 | 77 | 0 | 0.0 | 0.0 | 0.00 | 0.24 | 0.24 | 86 | 1012.8 |
| 20260903013003 | 77 | 0 | 0.0 | 0.0 | 0.00 | 0.24 | 0.24 | 85 | 1012.9 |
| 20260903012503 | 77 | 0 | 0.0 | 0.0 | 0.00 | 0.24 | 0.24 | 85 | 1012.9 |
| 20260903012004 | 77 | 60 | 0.0 | 1.0 | 0.00 | 0.24 | 0.24 | 85 | 1013.2 |
| 20260903011504 | 77 | 60 | 0.0 | 2.0 | 0.00 | 0.24 | 0.24 | 85 | 1013.1 |
| 20260903011004 | 77 | 60 | 0.0 | 2.0 | 0.00 | 0.24 | 0.24 | 85 | 1013.2 |
| 20260903010504 | 77 | 52 | 0.0 | 2.0 | 0.00 | 0.24 | 0.24 | 85 | 1013.2 |
| 20260903010004 | 77 | 52 | 0.0 | 3.0 | 0.00 | 0.24 | 0.24 | 85 | 1013.1 |
| 20260903005524 | 77 | 55 | 0.0 | 3.0 | 0.00 | 0.24 | 0.24 | 85 | 1013.1 |
| 20260903005004 | 77 | 72 | 0.0 | 2.0 | 0.00 | 0.24 | 0.24 | 85 | 1012.8 |
| 20260903004505 | 77 | 60 | 0.0 | 2.0 | 0.00 | 0.24 | 0.24 | 85 | 1012.8 |
| 20260903004003 | 77 | 302 | 1.0 | 3.0 | 0.00 | 0.24 | 0.24 | 84 | 1012.7 |
| 20260903003505 | 77 | 310 | 1.0 | 3.0 | 0.00 | 0.24 | 0.24 | 84 | 1012.3 |
| 20260903003004 | 78 | 328 | 0.0 | 3.0 | 0.00 | 0.24 | 0.24 | 84 | 1012.1 |
| 20260903002504 | 78 | 27 | 1.0 | 4.0 | 0.00 | 0.24 | 0.24 | 84 | 1012.1 |
| 20260903002024 | 78 | 66 | 1.0 | 5.0 | 0.00 | 0.24 | 0.24 | 84 | 1012.2 |
| 20260903001504 | 78 | 72 | 3.0 | 6.0 | 0.00 | 0.24 | 0.24 | 84 | 1012.6 |
| 20260903001003 | 78 | 69 | 3.0 | 7.0 | 0.00 | 0.24 | 0.24 | 83 | 1012.6 |
| 20260903000503 | 78 | 64 | 3.0 | 7.0 | 0.00 | 0.24 | 0.24 | 83 | 1012.4 |
| 20260903000004 | 78 | 61 | 3.0 | 8.0 | 0.00 | 0.24 | 0.24 | 83 | 1012.2 |
| 20260902235504 | 78 | 59 | 4.0 | 9.0 | 0.00 | 0.24 | 0.24 | 83 | 1012.2 |
| 20260902235003 | 78 | 55 | 3.0 | 9.0 | 0.00 | 0.25 | 0.24 | 83 | 1012.4 |
| 20260902234524 | 79 | 42 | 3.0 | 9.0 | 0.00 | 0.25 | 0.24 | 83 | 1012.4 |
| 20260902234003 | 79 | 36 | 3.0 | 9.0 | 0.00 | 0.25 | 0.24 | 82 | 1012.3 |
| 20260902233504 | 80 | 27 | 2.0 | 9.0 | 0.00 | 0.25 | 0.24 | 84 | 1012.6 |
| 20260902233003 | 81 | 345 | 2.0 | 10.0 | 0.00 | 0.26 | 0.24 | 84 | 1012.7 |
| 20260902232504 | 81 | 338 | 1.0 | 10.0 | 0.00 | 0.26 | 0.24 | 85 | 1012.4 |
| 20260902232003 | 82 | 359 | 0.0 | 4.0 | 0.00 | 0.27 | 0.24 | 85 | 1012.3 |
| 20260902231504 | 82 | 351 | 0.0 | 4.0 | 0.00 | 0.27 | 0.24 | 85 | 1012.3 |
| 20260902231004 | 82 | 320 | 0.0 | 3.0 | 0.00 | 0.28 | 0.24 | 85 | 1012.5 |
| 20260902230503 | 82 | 318 | 0.0 | 2.0 | 0.00 | 0.28 | 0.24 | 85 | 1012.6 |
| 20260902230004 | 83 | 317 | 1.0 | 6.0 | 0.00 | 0.29 | 0.24 | 85 | 1012.6 |
| 20260902225504 | 83 | 316 | 1.0 | 6.0 | 0.00 | 0.29 | 0.24 | 84 | 1012.4 |
| 20260902225003 | 84 | 302 | 2.0 | 5.0 | 0.01 | 0.30 | 0.24 | 85 | 1012.3 |
| 20260902224505 | 83 | 290 | 2.0 | 5.0 | 0.01 | 0.30 | 0.24 | 85 | 1012.1 |
| 20260902224024 | 84 | 283 | 1.0 | 5.0 | 0.02 | 0.30 | 0.24 | 85 | 1012.0 |
| 20260902223505 | 84 | 174 | 1.0 | 3.0 | 0.05 | 0.30 | 0.24 | 86 | 1011.9 |
| 20260902223003 | 84 | 166 | 1.0 | 4.0 | 0.14 | 0.30 | 0.24 | 85 | 1011.8 |
| 20260902222505 | 84 | 159 | 1.0 | 4.0 | 0.23 | 0.31 | 0.24 | 85 | 1011.8 |
| 20260902222004 | 84 | 146 | 1.0 | 3.0 | 0.23 | 0.31 | 0.24 | 86 | 1011.9 |
| 20260902221504 | 84 | 147 | 2.0 | 5.0 | 0.23 | 0.32 | 0.24 | 85 | 1011.9 |
| 20260902221025 | 84 | 155 | 2.0 | 5.0 | 0.23 | 0.33 | 0.24 | 85 | 1012.0 |
| 20260902220503 | 84 | 162 | 1.0 | 4.0 | 0.23 | 0.33 | 0.24 | 85 | 1012.1 |
| 20260902220005 | 84 | 218 | 1.0 | 3.0 | 0.23 | 0.34 | 0.24 | 86 | 1012.1 |
| 20260902215526 | 82 | 286 | 1.0 | 3.0 | 0.23 | 0.35 | 0.24 | 84 | 1012.0 |
| 20260902215025 | 82 | 312 | 1.0 | 3.0 | 0.22 | 0.35 | 0.23 | 84 | 1011.9 |
| 20260902214504 | 83 | 314 | 2.0 | 4.0 | 0.22 | 0.36 | 0.23 | 82 | 1012.0 |
| 20260902214025 | 83 | 318 | 2.0 | 4.0 | 0.21 | 0.35 | 0.22 | 81 | 1011.9 |
| 20260902213524 | 84 | 32 | 1.0 | 6.0 | 0.18 | 0.33 | 0.20 | 79 | 1011.8 |
| 20260902213004 | 85 | 67 | 4.0 | 11.0 | 0.09 | 0.24 | 0.10 | 78 | 1011.8 |
| 20260902212525 | 85 | 65 | 5.0 | 12.0 | 0.00 | 0.15 | 0.02 | 76 | 1011.8 |
| 20260902212003 | 86 | 55 | 4.0 | 12.0 | 0.00 | 0.15 | 0.01 | 70 | 1011.9 |
| 20260902211504 | 88 | 316 | 5.0 | 12.0 | 0.00 | 0.15 | 0.01 | 68 | 1012.0 |
| 20260902211025 | 89 | 293 | 7.0 | 13.0 | 0.00 | 0.15 | 0.01 | 69 | 1012.2 |
| 20260902210525 | 90 | 289 | 8.0 | 13.0 | 0.00 | 0.15 | 0.01 | 68 | 1011.9 |
| 20260902210005 | 89 | 286 | 8.0 | 14.0 | 0.00 | 0.15 | 0.01 | 69 | 1011.7 |
| 20260902205504 | 89 | 285 | 8.0 | 14.0 | 0.00 | 0.15 | 0.01 | 69 | 1011.7 |
| 20260902205003 | 90 | 288 | 8.0 | 12.0 | 0.00 | 0.15 | 0.01 | 69 | 1011.6 |
| 20260902204504 | 89 | 283 | 8.0 | 14.0 | 0.00 | 0.15 | 0.01 | 68 | 1011.6 |
| 20260902204004 | 89 | 281 | 7.0 | 14.0 | 0.00 | 0.15 | 0.01 | 67 | 1011.6 |
| 20260902203503 | 89 | 280 | 7.0 | 13.0 | 0.00 | 0.15 | 0.01 | 67 | 1011.6 |
| 20260902203025 | 89 | 276 | 6.0 | 13.0 | 0.00 | 0.15 | 0.01 | 69 | 1011.7 |
| 20260902202504 | 90 | 280 | 7.0 | 11.0 | 0.00 | 0.15 | 0.01 | 69 | 1011.7 |
| 20260902202004 | 89 | 281 | 7.0 | 12.0 | 0.00 | 0.15 | 0.01 | 70 | 1011.7 |
| 20260902201504 | 89 | 280 | 6.0 | 12.0 | 0.00 | 0.15 | 0.01 | 69 | 1011.7 |
| 20260902201004 | 89 | 279 | 7.0 | 13.0 | 0.00 | 0.15 | 0.01 | 69 | 1011.7 |
| 20260902200525 | 90 | 279 | 7.0 | 13.0 | 0.00 | 0.15 | 0.01 | 69 | 1011.8 |
| 20260902200004 | 89 | 280 | 8.0 | 13.0 | 0.00 | 0.15 | 0.01 | 70 | 1011.9 |
| 20260902195504 | 90 | 288 | 7.0 | 13.0 | 0.00 | 0.15 | 0.01 | 69 | 1012.0 |
| 20260902195003 | 89 | 286 | 7.0 | 12.0 | 0.00 | 0.15 | 0.01 | 69 | 1012.1 |
| 20260902194504 | 89 | 281 | 7.0 | 11.0 | 0.00 | 0.15 | 0.01 | 68 | 1012.2 |
| 20260902194003 | 89 | 278 | 6.0 | 12.0 | 0.00 | 0.15 | 0.01 | 70 | 1012.2 |
| 20260902193505 | 89 | 287 | 6.0 | 12.0 | 0.00 | 0.15 | 0.01 | 67 | 1012.3 |
| 20260902193003 | 90 | 286 | 6.0 | 12.0 | 0.00 | 0.15 | 0.01 | 68 | 1012.4 |
| 20260902192504 | 89 | 280 | 6.0 | 12.0 | 0.00 | 0.15 | 0.01 | 67 | 1012.5 |
| 20260902192004 | 90 | 283 | 5.0 | 10.0 | 0.00 | 0.15 | 0.01 | 68 | 1012.6 |
| 20260902191503 | 89 | 283 | 5.0 | 10.0 | 0.00 | 0.15 | 0.01 | 68 | 1012.6 |
| 20260902191003 | 89 | 279 | 5.0 | 10.0 | 0.00 | 0.15 | 0.01 | 69 | 1012.7 |
| 20260902190505 | 89 | 275 | 5.0 | 10.0 | 0.00 | 0.15 | 0.01 | 69 | 1012.7 |
| 20260902190004 | 88 | 280 | 5.0 | 9.0 | 0.00 | 0.15 | 0.01 | 70 | 1012.7 |
| 20260902185503 | 89 | 283 | 4.0 | 8.0 | 0.00 | 0.15 | 0.01 | 69 | 1012.8 |
| 20260902185025 | 89 | 285 | 5.0 | 10.0 | 0.00 | 0.15 | 0.01 | 70 | 1013.0 |
| 20260902184524 | 88 | 284 | 6.0 | 10.0 | 0.00 | 0.15 | 0.01 | 71 | 1013.1 |
| 20260902184003 | 88 | 281 | 5.0 | 10.0 | 0.00 | 0.15 | 0.01 | 72 | 1013.2 |
| 20260902183504 | 86 | 279 | 6.0 | 10.0 | 0.00 | 0.15 | 0.01 | 74 | 1013.2 |
| 20260902183004 | 86 | 276 | 7.0 | 11.0 | 0.00 | 0.15 | 0.01 | 75 | 1013.3 |
| 20260902182503 | 86 | 273 | 5.0 | 11.0 | 0.00 | 0.15 | 0.01 | 75 | 1013.3 |
| 20260902182004 | 86 | 275 | 4.0 | 8.0 | 0.00 | 0.15 | 0.01 | 75 | 1013.4 |
| 20260902181503 | 86 | 275 | 4.0 | 7.0 | 0.00 | 0.15 | 0.01 | 76 | 1013.5 |
| 20260902181025 | 86 | 271 | 5.0 | 9.0 | 0.00 | 0.15 | 0.01 | 76 | 1013.5 |
| 20260902180524 | 85 | 272 | 6.0 | 10.0 | 0.00 | 0.15 | 0.01 | 76 | 1013.6 |
| 20260902180025 | 85 | 270 | 6.0 | 10.0 | 0.00 | 0.15 | 0.01 | 75 | 1013.7 |
| 20260902175504 | 85 | 272 | 6.0 | 10.0 | 0.00 | 0.15 | 0.01 | 75 | 1013.7 |
| 20260902175024 | 85 | 273 | 5.0 | 10.0 | 0.00 | 0.15 | 0.01 | 75 | 1013.7 |
| 20260902174504 | 85 | 275 | 5.0 | 9.0 | 0.00 | 0.15 | 0.01 | 75 | 1013.7 |
| 20260902174025 | 85 | 278 | 5.0 | 9.0 | 0.00 | 0.15 | 0.01 | 75 | 1013.8 |
| 20260902173504 | 85 | 277 | 6.0 | 10.0 | 0.00 | 0.15 | 0.01 | 76 | 1013.7 |
| 20260902173004 | 84 | 277 | 6.0 | 10.0 | 0.00 | 0.15 | 0.01 | 76 | 1013.9 |
| 20260902172504 | 85 | 276 | 6.0 | 10.0 | 0.00 | 0.15 | 0.01 | 75 | 1014.0 |
| 20260902172004 | 85 | 282 | 6.0 | 11.0 | 0.00 | 0.15 | 0.01 | 74 | 1013.9 |
| 20260902171505 | 86 | 292 | 6.0 | 11.0 | 0.00 | 0.15 | 0.01 | 72 | 1014.0 |
| 20260902171003 | 87 | 292 | 6.0 | 14.0 | 0.00 | 0.15 | 0.01 | 73 | 1014.2 |
| 20260902170525 | 87 | 284 | 7.0 | 14.0 | 0.00 | 0.15 | 0.01 | 73 | 1014.2 |
| 20260902170025 | 86 | 283 | 6.0 | 12.0 | 0.00 | 0.15 | 0.01 | 73 | 1014.3 |
| 20260902165524 | 86 | 286 | 5.0 | 9.0 | 0.00 | 0.15 | 0.01 | 73 | 1014.4 |
| 20260902165003 | 87 | 286 | 3.0 | 7.0 | 0.00 | 0.15 | 0.01 | 72 | 1014.5 |
| 20260902164503 | 87 | 295 | 2.0 | 5.0 | 0.00 | 0.15 | 0.01 | 72 | 1014.5 |
| 20260902164024 | 87 | 311 | 2.0 | 4.0 | 0.00 | 0.15 | 0.01 | 72 | 1014.5 |
| 20260902163503 | 88 | 301 | 2.0 | 5.0 | 0.00 | 0.15 | 0.01 | 69 | 1014.6 |
| 20260902163003 | 88 | 294 | 2.0 | 5.0 | 0.00 | 0.15 | 0.01 | 66 | 1014.7 |